TimeEST,TemperatureF,Dew PointF,Humidity,Sea Level PressureIn,VisibilityMPH,Wind Direction,Wind SpeedMPH,Gust SpeedMPH,PrecipitationIn,Events,Conditions,WindDirDegrees,DateUTC
12:15 AM,26.6,26.6,100,30.39,10.0,Calm,Calm,-,N/A,,Clear,0,2013-01-09 05:15:00
12:55 AM,26.6,24.8,93,30.39,10.0,Calm,Calm,-,N/A,,Clear,0,2013-01-09 05:55:00
1:15 AM,24.8,23.0,93,30.37,8.0,Calm,Calm,-,N/A,,Clear,0,2013-01-09 06:15:00
1:35 AM,24.8,24.8,100,30.37,10.0,Calm,Calm,-,N/A,,Clear,0,2013-01-09 06:35:00
1:55 AM,24.8,24.8,100,30.37,10.0,Calm,Calm,-,N/A,,Clear,0,2013-01-09 06:55:00
2:15 AM,24.8,23.0,93,30.37,10.0,Calm,Calm,-,N/A,,Clear,0,2013-01-09 07:15:00
2:35 AM,24.8,24.8,100,30.38,8.0,Calm,Calm,-,N/A,,Clear,0,2013-01-09 07:35:00
2:55 AM,24.8,23.0,93,30.38,10.0,Calm,Calm,-,N/A,,Clear,0,2013-01-09 07:55:00
3:15 AM,24.8,23.0,93,30.38,10.0,Calm,Calm,-,N/A,,Clear,0,2013-01-09 08:15:00
3:35 AM,24.8,23.0,93,30.37,10.0,Calm,Calm,-,N/A,,Clear,0,2013-01-09 08:35:00
3:55 AM,24.8,23.0,93,30.37,10.0,Calm,Calm,-,N/A,,Clear,0,2013-01-09 08:55:00
4:15 AM,24.8,24.8,100,30.36,10.0,Calm,Calm,-,N/A,,Clear,0,2013-01-09 09:15:00
4:35 AM,24.8,24.8,100,30.35,10.0,Calm,Calm,-,N/A,,Clear,0,2013-01-09 09:35:00
4:55 AM,24.8,24.8,100,30.36,10.0,Calm,Calm,-,N/A,,Clear,0,2013-01-09 09:55:00
5:15 AM,24.8,24.8,100,30.36,10.0,Calm,Calm,-,N/A,,Clear,0,2013-01-09 10:15:00
5:35 AM,24.8,24.8,100,30.36,9.0,Calm,Calm,-,N/A,,Clear,0,2013-01-09 10:35:00
5:55 AM,24.8,24.8,100,30.35,10.0,Calm,Calm,-,N/A,,Clear,0,2013-01-09 10:55:00
6:15 AM,24.8,24.8,100,30.35,10.0,Calm,Calm,-,N/A,,Clear,0,2013-01-09 11:15:00
6:25 AM,24.8,24.8,100,30.35,10.0,Calm,Calm,-,N/A,,Clear,0,2013-01-09 11:25:00
6:55 AM,24.8,24.8,100,30.35,9.0,Calm,Calm,-,N/A,,Clear,0,2013-01-09 11:55:00
8:45 AM,32.0,23.0,69,30.37,8.0,Calm,Calm,-,N/A,,Clear,0,2013-01-09 13:45:00
9:45 AM,35.6,33.8,93,30.37,10.0,Calm,Calm,-,N/A,,Clear,0,2013-01-09 14:45:00
11:45 AM,42.8,37.4,81,30.34,10.0,Calm,Calm,-,N/A,,Mostly Cloudy,0,2013-01-09 16:45:00
1:45 PM,46.4,39.2,76,30.31,10.0,Calm,Calm,-,N/A,,Overcast,0,2013-01-09 18:45:00
2:45 PM,46.4,41.0,81,30.29,10.0,Calm,Calm,-,N/A,,Overcast,0,2013-01-09 19:45:00
3:30 PM,44.6,41.0,87,30.24,10.0,South,6.9,-,N/A,,Overcast,170,2013-01-09 20:30:00
3:45 PM,44.6,41.0,87,30.26,10.0,Calm,Calm,-,N/A,,Overcast,0,2013-01-09 20:45:00
4:45 PM,44.6,42.8,93,30.26,10.0,Calm,Calm,-,N/A,,Clear,0,2013-01-09 21:45:00
5:45 PM,39.2,39.2,100,30.26,8.0,Calm,Calm,-,N/A,,Clear,0,2013-01-09 22:45:00
6:45 PM,37.4,37.4,100,30.28,8.0,Calm,Calm,-,N/A,,Clear,0,2013-01-09 23:45:00
7:55 PM,35.6,35.6,100,30.32,5.0,NNE,6.9,-,N/A,,Clear,30,2013-01-10 00:55:00
8:15 PM,39.2,37.4,93,30.33,10.0,NNE,3.5,-,N/A,,Clear,30,2013-01-10 01:15:00
8:35 PM,39.2,39.2,100,30.33,10.0,Calm,Calm,-,N/A,,Clear,0,2013-01-10 01:35:00
8:55 PM,35.6,35.6,100,30.33,5.0,Calm,Calm,-,N/A,,Clear,0,2013-01-10 01:55:00
9:35 PM,35.6,35.6,100,30.35,5.0,Calm,Calm,-,N/A,,Clear,0,2013-01-10 02:35:00
9:55 PM,35.6,35.6,100,30.35,5.0,Calm,Calm,-,N/A,,Clear,0,2013-01-10 02:55:00
10:15 PM,35.6,33.8,93,30.36,5.0,Calm,Calm,-,N/A,,Clear,0,2013-01-10 03:15:00
10:35 PM,33.8,33.8,100,30.36,4.0,South,3.5,-,N/A,,Clear,180,2013-01-10 03:35:00
10:55 PM,33.8,33.8,100,30.38,4.0,Calm,Calm,-,N/A,,Clear,0,2013-01-10 03:55:00
11:15 PM,33.8,33.8,100,30.38,4.0,Calm,Calm,-,N/A,,Clear,0,2013-01-10 04:15:00
11:35 PM,33.8,33.8,100,30.39,5.0,Calm,Calm,-,N/A,,Clear,0,2013-01-10 04:35:00
11:55 PM,33.8,33.8,100,30.40,5.0,Calm,Calm,-,N/A,,Clear,0,2013-01-10 04:55:00